Wind_Speed
31 30 30 31 29 27 30 31 32 33 34 34 36 36 37 36 36 38 39 39 43 51 53 52 55 55 66 69 73 74 70 70 74 72 73 76 74 77 74 73 73 73 72 73 72 72 71 70 67
32 31 31 32 32 30 28 32 35 36 38 39 37 38 40 41 41 38 40 40 39 38 39 43 49 50 51 53 57 58 63 64 65 68 68 67 70 70 69 70 69 70 69 64 64 63 65 61 56
32 30 31 32 35 36 35 35 34 34 37 39 41 41 43 44 44 40 38 37 38 38 36 38 40 42 43 44 46 47 48 51 54 55 57 58 60 58 58 57 56 54 54 58 55 51 50 47 45
34 31 32 34 37 40 40 39 40 38 37 39 41 43 43 43 43 43 40 38 38 41 38 38 40 41 39 38 38 39 41 39 42 43 45 46 46 44 43 45 45 43 43 44 43 42 42 41 40
35 35 36 36 39 40 41 42 43 41 41 41 40 39 39 36 38 38 40 40 41 42 41 43 42 38 39 38 37 36 35 34 32 33 36 38 40 41 42 40 39 36 40 39 39 40 41 40 40
41 41 41 38 40 40 40 42 44 43 42 36 32 34 34 36 38 38 39 41 42 44 44 41 39 40 39 39 38 39 36 33 34 36 37 39 39 39 40 38 36 39 39 39 38 34 32 29 25
45 45 43 39 39 38 42 44 42 42 43 41 39 39 40 39 40 41 43 41 43 46 44 39 37 40 40 41 39 38 39 38 36 38 40 41 40 42 42 41 41 41 41 37 36 33 33 32 33
48 47 45 40 41 38 41 35 38 42 45 41 46 40 37 39 43 47 48 49 48 43 44 39 38 38 39 40 41 40 40 42 42 41 42 42 42 42 43 43 41 40 35 37 37 35 35 39 40
53 51 47 41 44 41 38 37 38 42 41 43 41 37 37 40 44 47 47 48 47 44 43 44 42 39 39 40 42 42 41 43 45 46 48 47 46 46 46 48 46 44 44 43 40 41 42 44 42
53 54 48 44 42 44 43 41 41 41 42 40 38 37 38 42 41 39 43 42 39 42 44 45 41 42 42 42 44 44 45 44 45 48 48 47 51 51 51 51 45 46 48 51 51 51 51 51 48
53 55 49 43 43 46 45 42 42 42 43 39 41 41 41 39 35 36 34 36 36 34 37 38 43 45 43 44 45 44 42 43 43 46 47 47 46 47 53 52 52 54 57 57 57 56 53 52 50
51 51 50 45 45 48 45 43 41 43 41 41 40 41 42 43 41 38 41 40 37 34 34 38 41 43 41 36 38 40 40 40 41 41 40 41 43 46 48 53 58 59 59 59 58 56 54 52 55
46 49 49 46 47 49 47 46 45 43 43 43 41 44 46 47 46 46 44 44 43 39 38 38 37 37 38 41 39 39 39 37 37 39 41 43 45 48 50 53 56 59 61 62 61 59 59 61 59
48 49 48 47 48 49 48 48 44 46 41 44 47 47 46 48 47 50 49 48 44 42 40 37 38 40 40 41 46 44 42 45 45 47 50 52 54 57 58 61 63 66 66 67 69 69 70 70 69
48 47 46 48 50 49 52 49 45 44 46 48 48 47 49 54 54 51 52 51 48 46 45 42 43 41 43 45 48 47 48 52 52 53 53 57 59 62 62 63 65 68 70 73 74 74 75 76 77
37 41 46 48 54 54 52 46 45 46 51 53 53 54 57 58 56 52 54 54 50 45 46 44 44 47 47 49 52 53 55 52 53 55 58 59 58 57 60 64 66 69 71 74 74 75 77 77 79
36 39 47 49 51 53 50 49 50 52 54 58 62 63 61 61 61 57 56 55 51 49 48 46 47 47 49 52 53 55 56 59 58 60 58 55 53 53 54 55 58 65 68 70 73 73 73 75 73
39 48 48 51 50 51 51 54 57 55 57 63 62 63 66 64 64 61 57 58 53 52 52 51 51 53 55 56 55 56 57 59 61 60 57 54 54 53 55 56 57 57 62 67 70 69 69 68 68
45 46 54 60 60 60 59 59 60 59 65 63 63 67 68 67 66 65 63 58 59 55 55 56 56 59 59 60 60 59 57 61 61 60 59 56 57 57 58 61 65 65 63 64 66 67 70 69 64
54 55 56 58 59 65 67 64 64 66 68 67 69 69 68 66 65 65 64 65 62 63 64 61 62 63 60 64 62 62 64 65 62 61 61 60 58 62 61 63 67 68 66 67 66 68 70 68 66
65 65 65 60 62 63 64 65 69 69 70 73 74 76 75 73 72 66 66 65 68 71 68 69 70 66 66 67 68 66 68 65 65 64 63 64 66 66 64 65 69 70 68 67 70 71 68 62 67
69 71 69 66 67 68 68 69 71 73 77 79 81 79 77 77 75 72 69 71 72 71 74 73 73 72 73 72 71 70 70 68 66 69 69 71 72 71 69 71 74 72 69 68 70 72 67 62 63
77 78 80 78 77 72 73 74 71 75 74 77 78 76 74 74 76 76 74 73 74 75 76 74 73 74 74 75 75 74 73 73 72 73 76 75 74 75 75 76 74 72 73 70 70 72 68 64 61
87 88 86 85 83 78 80 79 71 73 70 75 76 76 75 77 78 78 78 77 79 80 78 78 77 75 75 75 74 74 77 77 77 79 82 82 79 79 77 78 79 75 74 73 71 74 68 64 57
94 92 92 89 88 82 83 79 72 77 75 74 74 75 77 79 79 80 81 82 83 83 83 79 75 78 79 74 76 76 77 79 81 83 83 83 85 85 82 82 82 81 77 74 75 74 67 66 55
94 94 94 94 92 89 86 78 77 76 81 81 87 87 85 84 84 85 84 84 85 86 84 80 81 76 81 81 82 80 80 83 84 85 86 87 88 90 88 87 86 82 75 76 77 73 68 66 58
101 99 98 97 93 93 87 80 82 79 81 83 85 87 90 92 92 90 86 87 87 84 83 84 90 90 91 90 88 86 89 87 87 88 90 90 91 91 91 90 89 84 78 78 78 73 69 64 58
105 102 100 96 94 93 83 83 82 85 84 85 87 89 90 91 92 93 96 91 91 94 96 94 94 96 94 93 93 94 94 93 93 93 95 94 95 95 95 91 88 84 77 76 75 72 67 63 57
106 102 101 101 98 97 88 82 84 85 85 86 89 91 92 91 92 93 95 96 96 95 95 95 95 96 97 97 99 101 99 100 101 98 98 97 98 98 97 90 87 82 79 77 73 70 65 64 56
103 100 100 102 98 98 92 81 87 88 86 89 93 96 96 96 95 95 96 95 93 93 93 95 99 102 101 101 103 102 103 103 104 104 102 102 102 102 94 88 84 80 77 74 72 68 64 64 57
Wind_Direction
291 293 293 293 295 280 270 273 270 271 278 284 286 287 288 284 285 286 287 286 284 278 275 275 274 274 271 269 269 269 269 267 268 268 270 269 268 273 273 275 273 278 277 277 278 280 280 282 281
285 288 288 286 285 285 285 277 274 275 277 278 280 283 286 286 284 287 290 294 295 295 288 283 278 277 274 274 267 269 271 268 266 269 267 268 268 271 273 273 273 274 275 276 277 275 280 280 280
281 285 285 280 278 278 282 283 282 281 281 282 280 280 281 282 283 284 285 289 294 298 302 301 296 292 287 281 276 272 272 269 270 269 271 271 272 269 272 273 272 275 273 274 273 274 277 278 279
276 278 282 277 273 274 277 278 280 285 288 283 282 281 282 283 287 282 281 283 290 297 302 307 308 301 298 292 288 282 278 278 274 272 273 271 272 271 273 275 273 272 271 272 273 277 276 276 277
274 277 281 282 274 269 268 274 277 284 288 287 284 283 283 285 289 288 283 285 289 292 297 300 302 305 303 299 294 291 291 286 283 282 278 272 270 268 268 268 265 263 268 271 270 274 278 279 280
276 278 280 277 273 270 262 269 277 281 286 283 285 287 286 291 292 290 288 288 291 291 293 294 295 298 302 298 295 293 291 290 283 278 274 268 270 272 271 270 264 260 262 267 272 272 273 269 275
274 280 280 272 268 267 262 267 274 278 282 276 283 287 291 291 295 297 299 296 293 291 290 289 288 293 296 296 290 287 285 282 279 273 273 274 275 275 269 266 264 264 265 262 267 268 263 271 282
272 277 279 272 266 263 265 264 273 275 277 280 282 284 288 295 298 301 302 298 296 292 285 285 285 286 289 290 286 282 279 275 272 272 272 273 273 274 265 263 267 261 259 263 268 267 271 278 280
271 277 276 270 271 264 260 274 280 277 275 277 276 282 289 297 300 302 304 299 292 288 284 280 280 280 282 285 282 277 277 274 272 271 272 273 275 274 271 268 267 259 268 269 270 266 274 278 282
272 275 274 272 271 263 263 275 274 275 274 278 276 282 289 296 304 309 312 307 301 296 287 284 283 285 285 283 283 279 278 278 274 267 269 273 271 269 271 270 260 264 268 270 271 272 273 275 277
269 273 274 270 268 269 265 271 273 274 271 271 278 282 289 296 302 307 312 309 300 301 294 289 292 292 297 294 290 288 283 280 277 272 268 270 274 273 267 263 262 268 272 273 273 274 272 272 272
264 268 272 268 266 267 264 269 272 271 266 273 278 284 290 292 301 304 304 309 318 306 302 295 298 296 298 305 302 295 290 284 278 277 277 276 275 274 271 268 266 267 269 271 270 269 267 265 269
263 267 270 267 265 263 268 271 274 263 263 267 273 285 293 298 301 304 301 306 309 310 308 298 297 300 300 295 295 296 293 288 282 278 277 277 277 275 274 274 273 272 272 273 272 269 263 264 268
264 266 267 264 265 262 271 273 268 263 263 264 277 286 292 298 300 299 298 303 305 304 304 301 296 295 297 293 289 289 288 287 284 280 283 282 281 281 281 279 279 277 277 275 274 272 271 269 267
266 265 263 263 262 264 268 267 262 264 263 270 281 288 291 299 298 294 297 302 303 301 302 300 298 295 292 289 290 289 289 286 285 286 289 289 286 284 284 282 280 280 280 280 277 274 271 269 269
267 267 266 268 264 262 264 261 266 268 272 281 284 287 292 295 292 287 293 296 297 292 296 299 300 296 293 290 289 290 293 292 291 289 288 285 287 286 283 282 282 281 281 280 279 276 274 271 266
271 271 272 269 270 267 271 273 275 278 282 282 286 288 289 292 291 287 289 291 291 293 294 295 298 297 296 294 289 290 289 292 293 294 289 287 287 288 289 287 285 283 282 281 280 281 280 277 274
275 269 270 274 274 270 271 273 277 281 280 285 285 289 290 289 286 286 285 287 288 289 295 293 295 298 302 302 299 297 296 292 293 296 295 296 295 295 298 295 293 291 286 283 282 283 284 283 282
270 268 268 268 272 274 273 274 278 277 279 282 282 283 281 282 282 283 284 284 290 289 290 294 297 301 301 302 299 299 298 297 298 301 298 298 297 300 301 302 306 303 296 294 292 293 294 292 287
274 259 265 271 275 270 268 268 273 276 278 278 276 276 277 280 280 284 282 290 291 292 293 296 295 299 299 301 302 300 300 301 301 299 295 296 296 300 300 306 308 304 300 298 298 297 294 294 292
270 272 271 271 268 269 272 276 277 276 277 277 272 273 276 281 283 279 284 286 288 292 293 293 296 299 300 300 301 298 300 303 300 300 299 298 301 302 304 307 309 305 302 300 299 297 297 297 296
268 271 270 268 269 266 265 266 272 275 275 274 273 276 278 281 280 281 284 285 288 289 290 294 295 298 300 300 299 298 301 301 300 299 299 301 304 304 305 307 309 307 303 300 298 298 299 299 294
266 268 270 269 269 266 268 268 271 267 269 271 273 275 275 277 278 280 282 282 283 285 288 290 291 293 294 296 298 299 300 300 297 295 297 298 304 307 306 307 311 308 304 301 299 298 300 299 294
265 271 269 269 268 272 270 270 271 267 268 271 271 272 273 274 275 276 280 280 281 283 284 285 287 289 288 292 293 295 297 296 294 295 296 300 301 302 304 306 310 308 306 302 298 298 298 297 293
268 269 269 268 270 269 264 264 267 268 261 261 266 267 268 270 274 276 277 278 281 282 284 284 283 285 287 288 290 292 293 292 291 292 295 296 299 300 303 307 308 307 305 301 297 298 298 297 294
268 270 270 270 270 268 268 269 267 269 268 268 267 268 269 271 272 274 274 276 277 279 281 281 285 284 287 291 291 291 290 289 291 294 296 294 295 299 303 305 306 305 304 300 296 298 297 296 293
266 266 263 266 267 269 270 270 268 270 273 273 272 270 271 270 270 269 272 277 276 277 280 282 285 288 290 290 290 288 290 290 289 291 292 293 295 298 300 301 301 302 300 296 294 295 293 293 290
265 265 265 266 267 267 267 268 270 269 273 274 273 273 272 272 271 271 272 273 275 279 281 284 285 287 287 287 287 289 289 288 288 291 292 294 296 298 299 296 298 297 297 293 292 292 290 290 287
265 266 266 266 266 268 268 267 268 270 270 272 272 271 271 271 272 275 276 276 277 280 282 283 284 285 286 287 288 288 288 290 291 291 293 293 294 297 298 294 294 293 292 291 290 289 288 286 284
262 264 265 266 266 265 267 266 269 268 268 268 270 272 274 276 277 277 277 277 279 280 281 282 284 285 286 286 287 287 288 289 289 290 291 292 293 294 294 292 290 289 288 287 287 287 285 282 280
Height
10843 10842 10842 10841 10839 10837 10837 10835 10832 10830 10829 10828 10826 10824 10822 10821 10818 10815 10813 10813 10813 10812 10810 10807 10807 10808 10809 10810 10809 10808 10809 10808 10808 10807 10807 10807 10808 10809 10809 10810 10809 10807 10806 10805 10802 10801 10799 10798 10798
10836 10837 10836 10835 10833 10831 10831 10827 10826 10825 10824 10822 10820 10817 10814 10812 10809 10807 10806 10805 10804 10803 10800 10799 10798 10798 10798 10797 10797 10795 10795 10795 10794 10793 10792 10792 10793 10793 10795 10794 10794 10794 10793 10790 10790 10789 10788 10787 10787
10829 10830 10830 10828 10827 10825 10824 10821 10819 10819 10818 10815 10813 10810 10807 10805 10802 10802 10800 10798 10796 10796 10795 10792 10791 10789 10788 10787 10785 10785 10784 10783 10783 10781 10781 10781 10781 10780 10781 10781 10781 10781 10780 10780 10778 10777 10777 10777 10777
10823 10823 10824 10821 10819 10818 10816 10814 10811 10810 10811 10808 10805 10802 10800 10798 10796 10795 10794 10792 10790 10789 10789 10786 10783 10781 10780 10778 10776 10776 10775 10774 10772 10771 10771 10771 10771 10771 10770 10772 10772 10771 10770 10771 10771 10770 10769 10769 10769
10815 10815 10816 10814 10812 10810 10809 10807 10804 10803 10802 10800 10797 10793 10792 10791 10789 10788 10788 10787 10784 10782 10783 10781 10778 10774 10771 10770 10769 10768 10766 10766 10765 10765 10764 10763 10763 10763 10763 10763 10763 10763 10763 10763 10763 10762 10761 10761 10762
10807 10807 10806 10805 10802 10802 10802 10800 10797 10796 10794 10792 10789 10786 10784 10783 10780 10779 10779 10778 10775 10774 10774 10774 10770 10767 10764 10762 10760 10760 10760 10759 10758 10757 10756 10756 10756 10757 10757 10757 10757 10757 10756 10755 10755 10755 10753 10753 10754
10798 10798 10797 10795 10794 10794 10793 10793 10791 10789 10787 10784 10782 10781 10777 10775 10772 10770 10769 10768 10767 10764 10764 10765 10763 10759 10756 10754 10753 10752 10752 10751 10751 10750 10750 10750 10750 10750 10750 10749 10750 10749 10749 10748 10748 10747 10747 10746 10746
10789 10788 10788 10786 10785 10786 10785 10785 10784 10782 10780 10778 10776 10774 10770 10766 10764 10761 10759 10758 10757 10755 10753 10753 10752 10751 10748 10746 10744 10743 10743 10742 10741 10741 10741 10742 10742 10741 10741 10741 10741 10742 10741 10741 10740 10740 10739 10737 10737
10779 10778 10778 10778 10776 10778 10777 10776 10776 10774 10772 10770 10769 10766 10763 10759 10756 10753 10750 10748 10747 10746 10744 10743 10742 10741 10739 10738 10737 10735 10734 10733 10733 10732 10731 10731 10732 10732 10732 10733 10732 10732 10732 10732 10731 10731 10730 10728 10728
10768 10767 10767 10768 10768 10768 10768 10768 10768 10766 10764 10762 10761 10758 10755 10752 10749 10744 10741 10738 10738 10737 10736 10734 10733 10731 10731 10729 10727 10726 10725 10723 10723 10723 10722 10721 10722 10722 10721 10722 10722 10722 10722 10721 10721 10720 10719 10718 10717
10757 10756 10756 10757 10759 10759 10760 10760 10758 10758 10756 10755 10752 10750 10748 10745 10741 10738 10736 10733 10730 10728 10725 10724 10722 10721 10720 10719 10717 10717 10716 10715 10713 10713 10712 10712 10711 10711 10711 10711 10712 10712 10711 10709 10709 10708 10706 10706 10705
10744 10744 10745 10747 10748 10749 10750 10751 10751 10749 10749 10747 10744 10741 10740 10737 10733 10731 10729 10728 10725 10721 10718 10716 10713 10711 10710 10709 10706 10705 10706 10705 10705 10704 10703 10702 10701 10699 10697 10696 10696 10696 10695 10694 10694 10694 10694 10693 10691
10732 10732 10733 10735 10736 10738 10739 10740 10739 10739 10740 10739 10736 10733 10729 10726 10723 10722 10721 10719 10717 10715 10712 10709 10707 10704 10702 10700 10699 10698 10696 10696 10695 10694 10692 10691 10689 10687 10686 10684 10683 10682 10680 10679 10679 10679 10678 10678 10678
10720 10720 10721 10723 10726 10727 10728 10729 10728 10727 10730 10728 10725 10722 10719 10716 10714 10713 10711 10710 10709 10706 10704 10702 10699 10696 10694 10692 10690 10688 10688 10687 10685 10683 10682 10679 10677 10674 10672 10670 10668 10665 10664 10664 10662 10661 10662 10662 10661
10709 10708 10709 10711 10714 10717 10716 10718 10715 10719 10720 10717 10714 10711 10709 10705 10704 10702 10700 10699 10697 10695 10694 10692 10690 10688 10684 10682 10680 10678 10677 10677 10675 10672 10669 10666 10663 10660 10657 10653 10651 10647 10645 10642 10641 10641 10641 10641 10640
10699 10699 10699 10702 10704 10706 10706 10706 10704 10706 10708 10707 10703 10701 10698 10695 10694 10692 10690 10688 10687 10685 10683 10682 10679 10678 10674 10673 10670 10667 10664 10662 10660 10659 10656 10653 10649 10645 10641 10636 10633 10630 10626 10622 10619 10617 10615 10616 10616
10689 10690 10689 10692 10693 10695 10696 10696 10696 10698 10697 10695 10692 10689 10687 10685 10682 10680 10678 10677 10675 10673 10672 10670 10668 10666 10664 10662 10660 10657 10654 10651 10647 10643 10640 10637 10634 10630 10625 10620 10617 10612 10607 10603 10599 10595 10593 10590 10589
10678 10681 10681 10680 10684 10687 10687 10686 10686 10686 10685 10683 10679 10676 10673 10673 10670 10666 10665 10664 10662 10660 10660 10658 10655 10653 10650 10649 10647 10644 10641 10637 10634 10630 10626 10621 10617 10613 10609 10604 10599 10594 10589 10584 10580 10576 10571 10569 10565
10668 10668 10669 10668 10674 10676 10675 10676 10675 10675 10674 10671 10669 10666 10661 10658 10655 10651 10652 10651 10650 10647 10646 10644 10642 10640 10636 10633 10631 10629 10626 10623 10619 10615 10610 10606 10603 10598 10593 10587 10581 10575 10570 10564 10558 10553 10548 10543 10540
10654 10656 10653 10655 10660 10663 10660 10664 10662 10663 10661 10660 10657 10654 10650 10645 10641 10639 10637 10635 10635 10633 10631 10630 10629 10627 10624 10621 10617 10613 10609 10604 10601 10598 10595 10591 10588 10584 10578 10572 10565 10559 10552 10546 10540 10535 10531 10524 10514
10637 10640 10639 10641 10644 10647 10649 10649 10650 10651 10650 10647 10642 10639 10635 10630 10628 10626 10624 10620 10619 10618 10618 10616 10615 10614 10610 10607 10604 10600 10595 10591 10586 10580 10576 10572 10570 10567 10560 10555 10550 10542 10536 10529 10522 10515 10510 10507 10493
10622 10624 10623 10624 10626 10629 10636 10641 10639 10638 10636 10632 10626 10622 10621 10618 10614 10611 10609 10607 10605 10603 10601 10599 10598 10597 10596 10593 10589 10586 10582 10578 10572 10565 10559 10554 10551 10547 10543 10537 10531 10523 10517 10511 10505 10497 10491 10487 10478
10601 10606 10604 10606 10607 10613 10618 10621 10625 10624 10617 10612 10612 10608 10605 10602 10599 10597 10594 10592 10590 10588 10585 10583 10582 10581 10580 10577 10573 10569 10564 10560 10556 10550 10544 10540 10534 10528 10524 10520 10513 10506 10499 10493 10487 10479 10473 10468 10463
10579 10581 10584 10584 10586 10600 10592 10598 10616 10605 10606 10595 10594 10592 10591 10587 10583 10580 10578 10576 10574 10572 10569 10568 10567 10565 10563 10561 10557 10553 10548 10543 10538 10532 10526 10521 10517 10513 10509 10501 10495 10487 10479 10473 10467 10461 10457 10452 10448
10554 10557 10559 10565 10568 10578 10570 10581 10597 10590 10589 10581 10576 10574 10573 10571 10567 10564 10561 10558 10557 10555 10553 10551 10550 10548 10545 10543 10540 10536 10531 10525 10520 10515 10510 10506 10500 10494 10490 10484 10476 10469 10461 10455 10448 10443 10438 10432 10431
10536 10535 10536 10537 10538 10548 10555 10571 10567 10569 10568 10563 10560 10556 10552 10550 10548 10546 10544 10542 10540 10537 10534 10532 10529 10526 10525 10523 10521 10516 10511 10506 10501 10497 10491 10487 10483 10475 10468 10463 10457 10450 10443 10437 10430 10425 10420 10415 10411
10515 10517 10511 10512 10519 10521 10534 10547 10546 10548 10545 10543 10539 10536 10533 10529 10527 10526 10524 10522 10520 10517 10514 10511 10509 10507 10506 10504 10499 10495 10490 10485 10480 10477 10473 10467 10461 10456 10449 10444 10438 10432 10427 10420 10413 10407 10403 10399 10395
10486 10489 10488 10491 10495 10494 10518 10521 10526 10525 10525 10521 10518 10513 10510 10510 10509 10507 10505 10503 10501 10499 10497 10493 10490 10488 10485 10481 10476 10472 10468 10464 10459 10454 10449 10444 10438 10433 10428 10422 10416 10412 10407 10401 10394 10389 10384 10382 10378
10460 10469 10469 10464 10470 10472 10491 10505 10504 10501 10502 10500 10495 10490 10488 10489 10488 10488 10486 10484 10482 10480 10477 10473 10468 10465 10461 10458 10453 10448 10443 10439 10434 10429 10424 10419 10414 10410 10405 10398 10393 10388 10384 10379 10375 10370 10366 10363 10361
10436 10446 10443 10440 10453 10450 10463 10492 10479 10477 10478 10475 10472 10469 10469 10471 10471 10467 10464 10463 10461 10457 10452 10448 10444 10440 10437 10433 10429 10423 10418 10413 10408 10404 10399 10395 10390 10384 10380 10374 10369 10364 10360 10356 10353 10350 10347 10344 10341